This is the latest recevied weather packets stored in our database for station/object YO8PIC-12. If no packets are shown the sender has not sent any weather packets the latest 10 day(s).
| Time | Temp. | Humidity | Pressure | Rain* | Wind** | Luminosity | Snow |
|---|---|---|---|---|---|---|---|
| 1787842154 | 21.67° C | 63% | 1027.2 hPa | - | - | - | - |
| 1787841554 | 21.67° C | 62% | 1027.1 hPa | - | - | - | - |
| 1787840954 | 22.22° C | 61% | 1026.8 hPa | - | - | - | - |
| 1787840354 | 22.22° C | 60% | 1026.8 hPa | - | - | - | - |
| 1787839754 | 22.22° C | 59% | 1026.8 hPa | - | - | - | - |
| 1787839154 | 22.22° C | 59% | 1026.8 hPa | - | - | - | - |
| 1787838554 | 22.78° C | 58% | 1026.7 hPa | - | - | - | - |
| 1787837954 | 23.33° C | 56% | 1026.7 hPa | - | - | - | - |
| 1787837354 | 23.33° C | 55% | 1026.6 hPa | - | - | - | - |
| 1787836754 | 23.89° C | 54% | 1026.7 hPa | - | - | - | - |
| 1787836154 | 24.44° C | 51% | 1026.6 hPa | - | - | - | - |
| 1787835554 | 25° C | 49% | 1026.6 hPa | - | - | - | - |
| 1787834954 | 25° C | 48% | 1026.8 hPa | - | - | - | - |
| 1787834354 | 25° C | 48% | 1026.8 hPa | - | - | - | - |
| 1787833754 | 24.44° C | 48% | 1026.8 hPa | - | - | - | - |
| 1787833154 | 24.44° C | 49% | 1026.8 hPa | - | - | - | - |
| 1787832554 | 24.44° C | 50% | 1026.8 hPa | - | - | - | - |
| 1787831954 | 24.44° C | 50% | 1026.8 hPa | - | - | - | - |
| 1787831354 | 25° C | 50% | 1026.8 hPa | - | - | - | - |
| 1787830754 | 25.56° C | 50% | 1026.8 hPa | - | - | - | - |
| 1787830154 | 25.56° C | 49% | 1026.8 hPa | - | - | - | - |
| 1787829554 | 25.56° C | 49% | 1026.8 hPa | - | - | - | - |
| 1787828954 | 25° C | 50% | 1026.8 hPa | - | - | - | - |
| 1787828354 | 24.44° C | 51% | 1026.8 hPa | - | - | - | - |
| 1787827754 | 25° C | 50% | 1026.8 hPa | - | - | - | - |
* Rain since midnight (hover to see other rain measurements)
** Current wind speed in m/s (hover to see current wind gust speed)